Time,TemperatureF,DewpointF,PressureIn,WindDirection,WindDirectionDegrees,WindSpeedMPH,WindSpeedGustMPH,Humidity,HourlyPrecipIn,Conditions,Clouds,dailyrainin,SolarRadiationWatts/m^2,SoftwareType,DateUTC
2013-05-23 00:01:00,47.0,41.0,-100.00,West,267,0.0,5.0,78,0.00,,,0.00,95.000000,,2013-05-23 00:01:00,
2013-05-23 00:11:00,47.0,41.0,-100.00,West,267,0.0,5.0,78,0.00,,,0.00,95.000000,,2013-05-23 00:11:00,
2013-05-23 00:22:00,47.0,41.0,-100.00,West,267,0.0,5.0,78,0.00,,,0.00,95.000000,,2013-05-23 00:22:00,
2013-05-23 00:31:00,47.0,41.0,-100.00,West,267,0.0,5.0,78,0.00,,,0.00,95.000000,,2013-05-23 00:31:00,
2013-05-23 00:40:00,45.0,40.0,-100.00,South,177,6.0,13.0,84,0.02,,,0.02,91.000000,,2013-05-23 00:40:00,
2013-05-23 01:01:00,45.0,40.0,-100.00,South,177,6.0,13.0,84,0.02,,,0.02,91.000000,,2013-05-23 01:01:00,
2013-05-23 01:11:00,45.0,40.0,-100.00,South,177,6.0,13.0,84,0.02,,,0.02,91.000000,,2013-05-23 01:11:00,
2013-05-23 01:21:00,45.0,40.0,-100.00,South,177,6.0,13.0,84,0.02,,,0.02,91.000000,,2013-05-23 01:21:00,
2013-05-23 01:32:00,45.0,40.0,-100.00,South,177,6.0,13.0,84,0.02,,,0.02,91.000000,,2013-05-23 01:32:00,
2013-05-23 01:40:00,44.0,39.0,-100.00,East,99,5.0,18.0,82,0.02,,,0.04,30.000000,,2013-05-23 01:40:00,
2013-05-23 02:01:00,44.0,39.0,-100.00,East,99,5.0,18.0,82,0.02,,,0.04,30.000000,,2013-05-23 02:01:00,
2013-05-23 02:11:00,44.0,39.0,-100.00,East,99,5.0,18.0,82,0.02,,,0.04,30.000000,,2013-05-23 02:11:00,
2013-05-23 02:21:00,44.0,39.0,-100.00,East,99,5.0,18.0,82,0.02,,,0.04,30.000000,,2013-05-23 02:21:00,
2013-05-23 02:31:00,44.0,39.0,-100.00,East,99,5.0,18.0,82,0.02,,,0.04,30.000000,,2013-05-23 02:31:00,
2013-05-23 02:40:00,42.0,41.0,-100.00,ESE,117,2.0,10.0,95,0.13,,,0.17,2.000000,,2013-05-23 02:40:00,
2013-05-23 03:01:00,42.0,41.0,-100.00,ESE,117,2.0,10.0,95,0.13,,,0.17,2.000000,,2013-05-23 03:01:00,
2013-05-23 03:11:00,42.0,41.0,-100.00,ESE,117,2.0,10.0,95,0.13,,,0.17,2.000000,,2013-05-23 03:11:00,
2013-05-23 03:21:00,42.0,41.0,-100.00,ESE,117,2.0,10.0,95,0.13,,,0.17,2.000000,,2013-05-23 03:21:00,
2013-05-23 03:33:00,42.0,41.0,-100.00,ESE,117,2.0,10.0,95,0.13,,,0.17,2.000000,,2013-05-23 03:33:00,
2013-05-23 03:40:00,38.0,37.0,-100.00,ENE,58,1.0,13.0,95,0.14,,,0.31,0.000000,,2013-05-23 03:40:00,
2013-05-23 04:03:00,38.0,37.0,-100.00,ENE,58,1.0,13.0,95,0.14,,,0.31,0.000000,,2013-05-23 04:03:00,
2013-05-23 04:12:00,38.0,37.0,-100.00,ENE,58,1.0,13.0,95,0.14,,,0.31,0.000000,,2013-05-23 04:12:00,
2013-05-23 04:22:00,38.0,37.0,-100.00,ENE,58,1.0,13.0,95,0.14,,,0.31,0.000000,,2013-05-23 04:22:00,
2013-05-23 04:33:00,38.0,37.0,-100.00,ENE,58,1.0,13.0,95,0.14,,,0.31,0.000000,,2013-05-23 04:33:00,
2013-05-23 04:40:00,39.0,37.0,-100.00,South,169,6.0,11.0,94,0.03,,,0.34,0.000000,,2013-05-23 04:40:00,
2013-05-23 05:02:00,39.0,37.0,-100.00,South,169,6.0,11.0,94,0.03,,,0.34,0.000000,,2013-05-23 05:02:00,
2013-05-23 05:11:00,39.0,37.0,-100.00,South,169,6.0,11.0,94,0.03,,,0.34,0.000000,,2013-05-23 05:11:00,
2013-05-23 05:21:00,39.0,37.0,-100.00,South,169,6.0,11.0,94,0.03,,,0.34,0.000000,,2013-05-23 05:21:00,
2013-05-23 05:32:00,39.0,37.0,-100.00,South,169,6.0,11.0,94,0.03,,,0.34,0.000000,,2013-05-23 05:32:00,
2013-05-23 05:40:00,41.0,39.0,-100.00,SSE,150,12.0,27.0,91,0.16,,,0.50,0.000000,,2013-05-23 05:40:00,
2013-05-23 06:02:00,41.0,39.0,-100.00,SSE,150,12.0,27.0,91,0.16,,,0.50,0.000000,,2013-05-23 06:02:00,
2013-05-23 06:12:00,41.0,39.0,-100.00,SSE,150,12.0,27.0,91,0.16,,,0.50,0.000000,,2013-05-23 06:12:00,
2013-05-23 06:21:00,41.0,39.0,-100.00,SSE,150,12.0,27.0,91,0.16,,,0.50,0.000000,,2013-05-23 06:21:00,
2013-05-23 06:31:00,41.0,39.0,-100.00,SSE,150,12.0,27.0,91,0.16,,,0.50,0.000000,,2013-05-23 06:31:00,
2013-05-23 06:40:00,41.0,39.0,-100.00,SSE,160,9.0,26.0,92,0.05,,,0.55,0.000000,,2013-05-23 06:40:00,
2013-05-23 07:02:00,41.0,39.0,-100.00,SSE,160,9.0,26.0,92,0.05,,,0.55,0.000000,,2013-05-23 07:02:00,
2013-05-23 07:11:00,41.0,39.0,-100.00,SSE,160,9.0,26.0,92,0.05,,,0.55,0.000000,,2013-05-23 07:11:00,
2013-05-23 07:21:00,41.0,39.0,-100.00,SSE,160,9.0,26.0,92,0.05,,,0.55,0.000000,,2013-05-23 07:21:00,
2013-05-23 07:31:00,41.0,39.0,-100.00,SSE,160,9.0,26.0,92,0.05,,,0.55,0.000000,,2013-05-23 07:31:00,
2013-05-23 07:40:00,40.0,37.0,-100.00,SSE,161,14.0,22.0,88,0.01,,,0.56,0.000000,,2013-05-23 07:40:00,
2013-05-23 08:02:00,40.0,37.0,-100.00,SSE,161,14.0,22.0,88,0.01,,,0.56,0.000000,,2013-05-23 08:02:00,
2013-05-23 08:11:00,40.0,37.0,-100.00,SSE,161,14.0,22.0,88,0.01,,,0.56,0.000000,,2013-05-23 08:11:00,
2013-05-23 08:21:00,40.0,37.0,-100.00,SSE,161,14.0,22.0,88,0.01,,,0.56,0.000000,,2013-05-23 08:21:00,
2013-05-23 08:31:00,40.0,37.0,-100.00,SSE,161,14.0,22.0,88,0.01,,,0.56,0.000000,,2013-05-23 08:31:00,
2013-05-23 08:40:00,42.0,38.0,-100.00,SSE,163,11.0,19.0,87,0.00,,,0.56,0.000000,,2013-05-23 08:40:00,
2013-05-23 09:01:00,42.0,38.0,-100.00,SSE,163,11.0,19.0,87,0.00,,,0.56,0.000000,,2013-05-23 09:01:00,
2013-05-23 09:11:00,42.0,38.0,-100.00,SSE,163,11.0,19.0,87,0.00,,,0.56,0.000000,,2013-05-23 09:11:00,
2013-05-23 09:21:00,42.0,38.0,-100.00,SSE,163,11.0,19.0,87,0.00,,,0.56,0.000000,,2013-05-23 09:21:00,
2013-05-23 09:33:00,42.0,38.0,-100.00,SSE,163,11.0,19.0,87,0.00,,,0.56,0.000000,,2013-05-23 09:33:00,
2013-05-23 09:40:00,40.0,36.0,-100.00,SSE,156,10.0,18.0,87,0.00,,,0.56,0.000000,,2013-05-23 09:40:00,
2013-05-23 10:02:00,40.0,36.0,-100.00,SSE,156,10.0,18.0,87,0.00,,,0.56,0.000000,,2013-05-23 10:02:00,
2013-05-23 10:12:00,40.0,36.0,-100.00,SSE,156,10.0,18.0,87,0.00,,,0.56,0.000000,,2013-05-23 10:12:00,
2013-05-23 10:22:00,40.0,36.0,-100.00,SSE,156,10.0,18.0,87,0.00,,,0.56,0.000000,,2013-05-23 10:22:00,
2013-05-23 10:32:00,40.0,36.0,-100.00,SSE,156,10.0,18.0,87,0.00,,,0.56,0.000000,,2013-05-23 10:32:00,
2013-05-23 10:40:00,41.0,39.0,-100.00,SSE,161,8.0,17.0,91,0.00,,,0.56,0.000000,,2013-05-23 10:40:00,
2013-05-23 11:02:00,41.0,39.0,-100.00,SSE,161,8.0,17.0,91,0.00,,,0.56,0.000000,,2013-05-23 11:02:00,
2013-05-23 11:11:00,41.0,39.0,-100.00,SSE,161,8.0,17.0,91,0.00,,,0.56,0.000000,,2013-05-23 11:11:00,
2013-05-23 11:21:00,41.0,39.0,-100.00,SSE,161,8.0,17.0,91,0.00,,,0.56,0.000000,,2013-05-23 11:21:00,
2013-05-23 11:32:00,41.0,39.0,-100.00,SSE,161,8.0,17.0,91,0.00,,,0.56,0.000000,,2013-05-23 11:32:00,
2013-05-23 11:40:00,40.0,38.0,-100.00,SE,141,5.0,15.0,94,0.00,,,0.56,0.000000,,2013-05-23 11:40:00,
2013-05-23 12:01:00,40.0,38.0,-100.00,SE,141,5.0,15.0,94,0.00,,,0.56,0.000000,,2013-05-23 12:01:00,
2013-05-23 12:11:00,40.0,38.0,-100.00,SE,141,5.0,15.0,94,0.00,,,0.56,0.000000,,2013-05-23 12:11:00,
2013-05-23 12:21:00,40.0,38.0,-100.00,SE,141,5.0,15.0,94,0.00,,,0.56,0.000000,,2013-05-23 12:21:00,
2013-05-23 12:32:00,40.0,38.0,-100.00,SE,141,5.0,15.0,94,0.00,,,0.56,0.000000,,2013-05-23 12:32:00,
2013-05-23 12:40:00,40.0,39.0,-100.00,South,172,5.0,13.0,96,0.00,,,0.56,8.000000,,2013-05-23 12:40:00,
2013-05-23 13:01:00,40.0,39.0,-100.00,South,172,5.0,13.0,96,0.00,,,0.56,8.000000,,2013-05-23 13:01:00,
2013-05-23 13:11:00,40.0,39.0,-100.00,South,172,5.0,13.0,96,0.00,,,0.56,8.000000,,2013-05-23 13:11:00,
2013-05-23 13:21:00,40.0,39.0,-100.00,South,172,5.0,13.0,96,0.00,,,0.56,8.000000,,2013-05-23 13:21:00,
2013-05-23 13:31:00,40.0,39.0,-100.00,South,172,5.0,13.0,96,0.00,,,0.56,8.000000,,2013-05-23 13:31:00,
2013-05-23 13:40:00,39.0,38.0,-100.00,WNW,287,6.0,12.0,96,0.00,,,0.56,51.000000,,2013-05-23 13:40:00,
2013-05-23 14:01:00,39.0,38.0,-100.00,WNW,287,6.0,12.0,96,0.00,,,0.56,51.000000,,2013-05-23 14:01:00,
2013-05-23 14:11:00,39.0,38.0,-100.00,WNW,287,6.0,12.0,96,0.00,,,0.56,51.000000,,2013-05-23 14:11:00,
2013-05-23 14:21:00,39.0,38.0,-100.00,WNW,287,6.0,12.0,96,0.00,,,0.56,51.000000,,2013-05-23 14:21:00,
2013-05-23 14:32:00,39.0,38.0,-100.00,WNW,287,6.0,12.0,96,0.00,,,0.56,51.000000,,2013-05-23 14:32:00,
2013-05-23 14:40:00,41.0,39.0,-100.00,NE,49,1.0,12.0,94,0.00,,,0.56,190.000000,,2013-05-23 14:40:00,
2013-05-23 15:01:00,41.0,39.0,-100.00,NE,49,1.0,12.0,94,0.00,,,0.56,190.000000,,2013-05-23 15:01:00,
2013-05-23 15:11:00,41.0,39.0,-100.00,NE,49,1.0,12.0,94,0.00,,,0.56,190.000000,,2013-05-23 15:11:00,
2013-05-23 15:21:00,41.0,39.0,-100.00,NE,49,1.0,12.0,94,0.00,,,0.56,190.000000,,2013-05-23 15:21:00,
2013-05-23 15:32:00,41.0,39.0,-100.00,NE,49,1.0,12.0,94,0.00,,,0.56,190.000000,,2013-05-23 15:32:00,
2013-05-23 15:40:00,43.0,41.0,-100.00,ENE,62,4.0,9.0,94,0.00,,,0.56,249.000000,,2013-05-23 15:40:00,
2013-05-23 16:03:00,43.0,41.0,-100.00,ENE,62,4.0,9.0,94,0.00,,,0.56,249.000000,,2013-05-23 16:03:00,
2013-05-23 16:12:00,43.0,41.0,-100.00,ENE,62,4.0,9.0,94,0.00,,,0.56,249.000000,,2013-05-23 16:12:00,
2013-05-23 16:22:00,43.0,41.0,-100.00,ENE,62,4.0,9.0,94,0.00,,,0.56,249.000000,,2013-05-23 16:22:00,
2013-05-23 16:33:00,43.0,41.0,-100.00,ENE,62,4.0,9.0,94,0.00,,,0.56,249.000000,,2013-05-23 16:33:00,
2013-05-23 16:40:00,45.0,43.0,-100.00,SE,143,3.0,9.0,94,0.00,,,0.56,311.000000,,2013-05-23 16:40:00,
2013-05-23 17:03:00,45.0,43.0,-100.00,SE,143,3.0,9.0,94,0.00,,,0.56,311.000000,,2013-05-23 17:03:00,
2013-05-23 17:11:00,45.0,43.0,-100.00,SE,143,3.0,9.0,94,0.00,,,0.56,311.000000,,2013-05-23 17:11:00,
2013-05-23 17:22:00,45.0,43.0,-100.00,SE,143,3.0,9.0,94,0.00,,,0.56,311.000000,,2013-05-23 17:22:00,
2013-05-23 17:33:00,45.0,43.0,-100.00,SE,143,3.0,9.0,94,0.00,,,0.56,311.000000,,2013-05-23 17:33:00,
2013-05-23 17:40:00,46.0,42.0,-100.00,ENE,65,5.0,8.0,86,0.00,,,0.56,385.000000,,2013-05-23 17:40:00,
2013-05-23 18:01:00,46.0,42.0,-100.00,ENE,65,5.0,8.0,86,0.00,,,0.56,385.000000,,2013-05-23 18:01:00,
2013-05-23 18:11:00,46.0,42.0,-100.00,ENE,65,5.0,8.0,86,0.00,,,0.56,385.000000,,2013-05-23 18:11:00,
2013-05-23 18:21:00,46.0,42.0,-100.00,ENE,65,5.0,8.0,86,0.00,,,0.56,385.000000,,2013-05-23 18:21:00,
2013-05-23 18:32:00,46.0,42.0,-100.00,ENE,65,5.0,8.0,86,0.00,,,0.56,385.000000,,2013-05-23 18:32:00,
2013-05-23 18:40:00,48.0,42.0,-100.00,NE,43,3.0,8.0,79,0.00,,,0.56,441.000000,,2013-05-23 18:40:00,
2013-05-23 19:01:00,48.0,42.0,-100.00,NE,43,3.0,8.0,79,0.00,,,0.56,441.000000,,2013-05-23 19:01:00,
2013-05-23 19:11:00,48.0,42.0,-100.00,NE,43,3.0,8.0,79,0.00,,,0.56,441.000000,,2013-05-23 19:11:00,
2013-05-23 19:21:00,48.0,42.0,-100.00,NE,43,3.0,8.0,79,0.00,,,0.56,441.000000,,2013-05-23 19:21:00,
2013-05-23 19:31:00,48.0,42.0,-100.00,NE,43,3.0,8.0,79,0.00,,,0.56,441.000000,,2013-05-23 19:31:00,
2013-05-23 19:40:00,48.0,42.0,-100.00,NE,40,5.0,10.0,79,0.00,,,0.56,484.000000,,2013-05-23 19:40:00,
2013-05-23 20:02:00,48.0,42.0,-100.00,NE,40,5.0,10.0,79,0.00,,,0.56,484.000000,,2013-05-23 20:02:00,
2013-05-23 20:11:00,48.0,42.0,-100.00,NE,40,5.0,10.0,79,0.00,,,0.56,484.000000,,2013-05-23 20:11:00,
2013-05-23 20:21:00,48.0,42.0,-100.00,NE,40,5.0,10.0,79,0.00,,,0.56,484.000000,,2013-05-23 20:21:00,
2013-05-23 20:32:00,48.0,42.0,-100.00,NE,40,5.0,10.0,79,0.00,,,0.56,484.000000,,2013-05-23 20:32:00,
2013-05-23 20:40:00,53.0,45.0,-100.00,East,85,4.0,10.0,74,0.00,,,0.56,557.000000,,2013-05-23 20:40:00,
2013-05-23 21:01:00,53.0,45.0,-100.00,East,85,4.0,10.0,74,0.00,,,0.56,557.000000,,2013-05-23 21:01:00,
2013-05-23 21:11:00,53.0,45.0,-100.00,East,85,4.0,10.0,74,0.00,,,0.56,557.000000,,2013-05-23 21:11:00,
2013-05-23 21:21:00,53.0,45.0,-100.00,East,85,4.0,10.0,74,0.00,,,0.56,557.000000,,2013-05-23 21:21:00,
2013-05-23 21:32:00,53.0,45.0,-100.00,East,85,4.0,10.0,74,0.00,,,0.56,557.000000,,2013-05-23 21:32:00,
2013-05-23 21:40:00,50.0,42.0,-100.00,East,85,3.0,11.0,73,0.00,,,0.56,528.000000,,2013-05-23 21:40:00,
2013-05-23 22:02:00,50.0,42.0,-100.00,East,85,3.0,11.0,73,0.00,,,0.56,528.000000,,2013-05-23 22:02:00,
2013-05-23 22:12:00,50.0,42.0,-100.00,East,85,3.0,11.0,73,0.00,,,0.56,528.000000,,2013-05-23 22:12:00,
2013-05-23 22:22:00,50.0,42.0,-100.00,East,85,3.0,11.0,73,0.00,,,0.56,528.000000,,2013-05-23 22:22:00,
2013-05-23 22:33:00,50.0,42.0,-100.00,East,85,3.0,11.0,73,0.00,,,0.56,528.000000,,2013-05-23 22:33:00,
2013-05-23 22:40:00,51.0,46.0,-100.00,NNW,345,2.0,8.0,83,0.00,,,0.56,244.000000,,2013-05-23 22:40:00,
2013-05-23 23:01:00,51.0,46.0,-100.00,NNW,345,2.0,8.0,83,0.00,,,0.56,244.000000,,2013-05-23 23:01:00,
2013-05-23 23:11:00,51.0,46.0,-100.00,NNW,345,2.0,8.0,83,0.00,,,0.56,244.000000,,2013-05-23 23:11:00,
2013-05-23 23:21:00,51.0,46.0,-100.00,NNW,345,2.0,8.0,83,0.00,,,0.56,244.000000,,2013-05-23 23:21:00,
2013-05-23 23:31:00,51.0,46.0,-100.00,NNW,345,2.0,8.0,83,0.00,,,0.56,244.000000,,2013-05-23 23:31:00,
2013-05-23 23:40:00,51.0,48.0,-100.00,NNW,334,4.0,9.0,89,0.00,,,0.56,163.000000,,2013-05-23 23:40:00,